CAPE
344 146 17 8 87 129 287 222 267 130 42 85 34 61 64 6 9 2 1 2 0 0 0 0 0 3 5 12 16 17 35 49 66 97 103 81 23 75
230 196 307 174 239 177 101 307 245 104 102 21 0 8 0 2 3 2 3 1 1 0 0 0 0 0 0 0 0 0 3 6 18 26 15 12 5 0
317 137 184 255 143 99 50 168 203 255 160 97 32 4 1 1 1 3 3 4 5 2 0 0 0 0 0 0 0 0 0 0 0 0 0 2 3 3
71 57 67 189 190 209 187 168 197 187 126 89 17 1 2 2 3 1 2 3 3 7 7 5 3 2 2 1 3 1 1 0 1 4 4 3 2 1
0 0 1 1 1 0 0 23 8 0 0 8 2 2 2 2 2 3 3 3 3 5 5 4 6 7 7 4 3 5 5 5 2 1 2 1 3 6
1 1 0 0 1 2 0 0 0 0 0 1 0 2 2 2 2 2 2 3 3 3 4 4 4 6 7 6 6 1 0 0 0 0 0 0 2 3
0 0 0 0 0 0 1 1 0 0 0 0 0 0 2 2 1 2 3 2 2 2 1 1 0 0 2 3 3 1 0 0 0 0 0 0 0 0
0 0 0 0 0 0 0 0 0 1 0 0 0 1 3 1 0 0 0 1 1 2 1 2 0 1 0 1 1 0 0 0 0 0 0 0 0 0
0 3 0 0 0 0 0 0 0 0 0 0 0 1 0 1 0 0 1 1 2 1 0 2 1 2 2 0 0 0 0 0 0 0 0 0 0 0
0 0 0 0 0 0 0 0 0 0 0 0 0 0 0 0 1 0 0 0 1 1 1 2 1 2 0 0 0 0 0 0 0 0 0 0 0 0
0 0 0 0 0 0 0 0 0 0 0 0 0 0 0 0 0 0 2 2 0 0 0 0 0 0 2 2 0 0 0 0 0 0 0 0 0 0
0 0 0 0 0 0 0 0 0 0 0 0 0 0 0 0 0 0 0 0 8 1 6 0 0 0 0 0 2 1 0 0 0 0 0 0 0 0
0 0 0 0 0 0 0 0 0 0 0 0 0 0 0 0 0 0 0 0 0 0 0 0 1 4 16 2 0 0 0 0 0 0 0 0 0 0
0 0 0 0 0 0 0 0 0 0 0 0 0 0 0 0 0 0 0 0 0 0 0 0 0 0 6 39 32 5 5 14 6 6 4 0 0 0
0 0 0 0 0 0 0 0 0 0 0 0 0 0 0 0 0 0 0 0 0 0 0 0 0 0 0 0 10 10 12 28 56 42 41 31 15 8
0 0 0 0 0 0 0 0 0 0 0 0 0 0 0 0 0 0 0 4 1 0 0 0 0 0 0 0 0 1 0 9 6 7 11 10 31 8
0 0 0 0 0 0 0 0 0 0 0 0 0 0 0 0 0 0 0 0 0 1 2 0 0 0 0 0 0 0 0 6 10 0 0 0 16 25
0 0 0 0 0 0 0 0 0 0 0 0 0 0 0 0 0 0 0 0 0 0 0 0 0 0 0 0 0 0 0 3 15 0 0 0 0 2
0 0 0 0 0 0 0 0 0 0 0 0 0 0 0 0 0 0 0 0 0 0 0 0 0 0 0 18 0 0 0 0 0 0 13 0 0 8
0 0 0 0 0 0 0 0 0 0 0 0 0 0 0 0 0 0 0 0 0 0 0 0 0 0 0 0 0 0 0 0 0 0 0 0 5 1
0 0 0 0 0 0 0 0 0 0 0 0 0 0 0 0 0 0 0 0 0 0 0 0 0 0 0 0 0 0 0 0 0 0 0 0 0 0
0 0 0 0 0 0 0 0 0 0 0 0 0 0 0 0 0 0 0 0 0 0 0 0 0 0 0 0 0 0 0 0 0 0 0 0 0 0
0 0 0 0 0 0 0 0 0 0 0 0 0 0 0 0 0 0 0 0 0 0 0 0 0 0 0 0 0 0 0 0 0 0 0 0 0 0
CIN
-18 -6 -24 -48 -45 -42 -5 -7 -3 -16 -23 -34 -49 -109 -107 -134 -105 -127 -0 -0 -0 -0 -0 -0 -36 -88 -66 -70 -57 -42 -28 -29 -14 -4 -1 -2 -1 -0
-14 -10 -6 -24 -24 -31 -18 -13 -13 -14 -11 -22 -7 -98 -0 -0 -0 -0 -0 -0 -0 -0 -0 -0 -0 -0 -0 -0 -42 -0 -30 -23 -31 -22 -14 -11 -13 -0
-3 -17 -9 -12 -18 -19 -36 -7 -14 -15 -7 -5 -27 -20 -0 -0 -0 -0 -0 -0 -0 -0 -0 -0 -0 -0 -0 -0 -0 -0 -0 -0 -0 -0 -0 -13 -11 -13
-15 -31 -33 -15 -15 -11 -12 -14 -14 -12 -14 -8 -13 -0 -0 -0 -0 -0 -0 -0 -0 -0 -0 -0 -0 -0 -0 -0 -0 -0 -0 -0 -0 -0 -0 -0 -0 -0
-0 -0 -0 -0 -0 -0 -0 -11 -16 -0 -0 -23 -0 -0 -0 -0 -0 -0 -0 -0 -0 -0 -0 -0 -0 -0 -0 -0 -0 -0 -0 -0 -0 -0 -0 -0 -0 -0
-0 -0 -0 -0 -0 -0 -0 -0 -0 -0 -0 -0 -0 -0 -0 -0 -0 -0 -0 -0 -0 -0 -0 -0 -0 -0 -0 -0 -0 -0 -0 -0 -0 -0 -0 -0 -0 -0
-0 -0 -0 -0 -0 -0 -0 -0 -0 -2 -0 -0 -0 -0 -0 -0 -0 -0 -0 -0 -0 -0 -0 -0 -0 -0 -0 -0 -0 -0 -0 -0 -0 -0 -0 -0 -0 -0
-0 -0 -0 -0 -0 -0 -0 -0 -0 -2 -0 -0 -0 -0 -0 -0 -0 -0 -0 -0 -0 -0 -0 -0 -0 -0 -0 -0 -0 -0 -0 -0 -0 -0 -0 -0 -0 -0
-0 -5 -0 -0 -0 -0 -0 -0 -0 -0 -0 -4 -0 -0 -0 -1 -0 -0 -0 -0 -0 -0 -0 -0 -0 -0 -0 -0 -0 -0 -0 -0 -0 -0 -0 -0 -0 -0
-0 -0 -0 -0 -0 -0 -0 -0 -0 -0 -0 -0 -0 -0 -0 -0 -0 -0 -0 -0 -0 -0 -0 -0 -0 -0 -0 -0 -0 -0 -0 -0 -0 -0 -0 -0 -0 -0
-0 -0 -0 -0 -0 -0 -0 -0 -0 -0 -0 -0 -0 -0 -0 -0 -0 -0 -5 -5 -0 -0 -0 -0 -0 -0 -0 -0 -0 -0 -0 -0 -0 -0 -0 -0 -0 -0
-0 -0 -0 -0 -0 -0 -3 -5 -0 -0 -0 -0 -0 -0 -0 -0 -0 -0 -0 -0 -12 -8 -2 -0 -0 -0 -0 -0 -0 -0 -0 -0 -0 -0 -0 -0 -0 -0
-0 -0 -0 -0 -0 -0 -0 -0 -0 -0 -0 -0 -0 -0 -0 -0 -0 -0 -0 -0 -0 -0 -0 -0 -2 -17 -9 -15 -0 -0 -0 -0 -0 -0 -0 -0 -0 -0
-0 -0 -0 -0 -0 -0 -0 -0 -0 -0 -0 -0 -0 -0 -0 -0 -0 -0 -0 -0 -0 -0 -0 -0 -0 -0 -15 -15 -26 -35 -53 -46 -36 -25 -39 -0 -0 -0
-0 -0 -0 -0 -0 -0 -0 -0 -0 -0 -0 -0 -0 -0 -0 -0 -0 -0 -0 -0 -0 -0 -0 -0 -0 -0 -0 -0 -9 -20 -13 -10 -15 -21 -14 -28 -28 -32
-0 -0 -0 -0 -0 -0 -0 -0 -0 -0 -0 -0 -0 -0 -0 -0 -0 -0 -0 -20 -3 -2 -0 -0 -0 -0 -0 -0 -0 -9 -3 -10 -40 -35 -26 -14 -13 -8
-0 -0 -0 -0 -0 -0 -0 -0 -0 -0 -0 -0 -0 -0 -0 -0 -0 -0 -0 -0 -0 -7 -12 -0 -0 -0 -0 -0 -0 -0 -0 -21 -18 -2 -0 -0 -4 -4
-0 -0 -0 -0 -0 -0 -0 -0 -0 -0 -0 -0 -0 -0 -0 -0 -0 -0 -0 -0 -0 -0 -0 -0 -0 -0 -0 -0 -0 -0 -0 -2 -15 -1 -0 -0 -1 -7
-0 -0 -0 -0 -0 -0 -0 -0 -0 -0 -0 -0 -0 -0 -0 -0 -0 -0 -0 -0 -0 -0 -0 -0 -0 -0 -0 -5 -0 -0 -0 -0 -0 -0 -11 -8 -0 -7
-0 -0 -0 -0 -0 -0 -0 -0 -0 -0 -0 -0 -0 -0 -0 -0 -0 -0 -0 -0 -0 -0 -0 -0 -0 -0 -0 -0 -0 -0 -0 -0 -0 -0 -0 -0 -5 -11
-0 -0 -0 -0 -0 -0 -0 -0 -0 -0 -0 -0 -0 -0 -0 -0 -0 -0 -0 -0 -0 -0 -0 -0 -0 -0 -0 -0 -0 -0 -0 -0 -0 -0 -0 -0 -0 -0
-0 -0 -0 -0 -0 -0 -0 -0 -0 -0 -0 -0 -0 -0 -0 -0 -0 -0 -0 -0 -0 -0 -0 -0 -0 -0 -0 -0 -0 -0 -0 -0 -0 -0 -0 -0 -0 -0
-0 -0 -0 -0 -0 -0 -0 -0 -0 -0 -0 -0 -0 -0 -0 -0 -0 -0 -0 -0 -0 -0 -0 -0 -0 -0 -0 -0 -0 -0 -0 -0 -0 -0 -0 -0 -0 -0
Wind_Speed
9 5 6 28 30 28 23 20 20 23 23 20 20 21 24 25 25 26 26 28 27 27 26 24 23 23 24 25 25 24 25 26 28 23 24 24 31 34
13 12 13 20 22 22 23 22 20 21 22 20 21 20 23 23 25 24 24 24 24 24 24 23 22 22 22 22 21 22 22 24 24 23 25 27 28 29
16 12 12 8 9 10 14 19 18 18 18 17 18 20 23 24 24 23 23 23 23 23 22 23 23 22 23 23 22 21 20 20 21 22 23 24 23 23
20 17 17 16 16 16 15 15 14 16 16 16 18 19 20 20 20 21 22 22 22 22 22 23 22 22 21 21 21 20 19 18 19 19 20 20 19 18
24 21 19 18 18 17 16 16 17 17 17 15 15 15 16 17 19 20 20 21 22 22 23 23 23 22 22 22 21 21 20 19 18 19 19 19 19 17
24 23 21 20 19 19 17 17 17 17 16 15 16 16 16 15 16 17 19 20 20 21 22 22 22 22 23 22 21 21 20 20 20 20 19 19 19 18
26 25 24 23 22 20 18 18 17 17 16 16 16 16 17 17 18 17 17 18 19 20 21 21 21 21 21 21 21 21 20 20 19 19 19 19 19 18
23 23 24 24 23 22 21 21 20 17 17 17 16 17 17 17 16 16 15 17 18 18 19 20 20 20 20 21 21 20 20 20 20 20 19 19 19 19
24 23 23 23 21 21 22 21 21 21 20 18 18 18 17 17 15 16 16 16 16 14 17 19 20 20 20 19 19 19 19 19 19 19 19 19 19 19
24 23 22 22 23 21 21 21 21 21 21 19 18 18 18 18 17 16 15 15 15 15 16 18 19 19 18 18 18 18 18 18 18 18 19 19 19 19
23 24 22 21 23 20 18 19 18 19 20 19 18 18 18 18 20 13 15 13 15 16 15 18 18 18 18 18 17 16 17 17 17 17 18 17 18 19
20 21 22 21 22 21 18 18 19 19 17 16 16 16 16 19 21 20 21 19 14 16 16 18 16 17 19 17 16 17 16 15 15 16 16 16 18 20
18 21 21 21 21 20 20 19 17 17 16 16 15 15 15 20 21 20 21 19 20 17 20 20 15 15 17 17 16 15 14 15 14 15 15 16 18 19
19 20 19 19 20 20 18 18 17 18 17 15 17 18 19 19 19 19 19 19 18 18 20 21 20 20 21 15 17 12 12 11 12 14 14 16 16 17
19 18 18 19 18 19 17 19 20 19 19 18 18 18 17 18 16 16 16 17 17 19 21 19 21 23 22 20 20 16 17 14 11 12 15 16 16 16
17 16 17 16 16 17 18 19 20 20 20 19 19 18 17 19 19 20 18 14 14 17 20 21 18 21 21 20 19 19 18 16 15 15 16 14 12 15
15 16 16 15 15 16 18 19 19 19 19 20 20 20 19 19 18 19 20 21 20 16 17 18 20 17 17 18 17 18 18 13 14 16 20 18 18 15
17 18 16 18 19 20 19 18 16 17 20 22 20 20 20 20 21 20 20 20 20 19 20 18 18 15 14 16 16 18 18 18 12 14 16 17 16 14
17 20 19 19 20 20 21 21 19 20 20 21 20 19 20 18 18 20 20 21 20 18 17 19 20 21 21 12 13 16 17 17 16 20 10 12 15 13
15 18 18 18 20 21 21 22 22 19 17 19 20 20 20 21 22 21 23 20 23 23 19 14 16 18 18 18 16 12 14 16 16 16 16 19 15 12
14 17 17 18 18 19 19 20 21 20 21 20 20 21 21 21 24 21 21 20 19 17 18 17 15 17 16 13 12 11 9 11 13 15 19 14 11 12
21 20 19 17 17 18 19 20 21 19 17 18 19 19 20 20 21 23 24 22 16 14 17 13 13 15 14 11 12 13 8 7 8 9 11 14 15 13
19 20 21 22 19 15 16 16 18 18 20 19 16 17 19 19 21 22 22 21 19 18 18 16 14 9 10 11 12 15 13 6 6 5 5 5 8 10
Wind_Direction
100 69 148 199 246 268 286 294 296 298 301 312 316 329 330 334 328 323 322 325 330 334 334 331 330 327 322 314 312 310 304 301 300 300 300 301 296 295
118 110 120 178 234 293 290 296 300 300 304 318 324 331 336 336 338 337 335 334 333 338 343 343 342 342 339 337 334 328 322 310 308 305 304 302 303 305
26 79 137 1 348 341 324 306 309 315 315 327 333 335 331 335 342 348 347 342 340 342 345 345 342 339 334 333 333 335 333 331 327 323 318 317 320 319
4 358 348 344 345 337 338 339 342 335 329 328 335 337 344 349 352 358 356 357 0 359 356 355 353 350 347 346 343 342 342 342 343 345 339 344 344 349
27 13 355 357 358 355 349 342 341 338 337 341 343 350 346 353 354 356 358 360 3 5 6 2 3 358 360 359 358 355 352 357 359 359 356 1 5 6
26 19 14 13 12 13 6 1 4 4 4 4 356 359 8 2 4 2 1 1 1 3 3 4 5 7 9 12 14 17 19 17 15 13 10 12 7 360
38 36 30 24 21 23 25 18 19 18 15 10 5 1 358 354 351 357 359 1 0 0 3 2 3 5 4 4 6 7 8 9 8 8 6 4 2 2
40 41 35 29 24 23 21 18 18 22 14 13 10 5 4 3 6 2 5 357 354 359 360 3 3 2 3 4 8 10 10 10 9 9 9 10 7 6
18 23 26 19 25 24 14 12 9 11 15 15 10 5 4 8 14 5 2 2 4 15 9 2 3 1 5 7 8 9 9 10 12 11 10 10 10 9
16 20 23 18 10 22 24 21 19 16 14 17 17 14 11 9 8 9 12 12 8 2 0 351 355 355 1 3 5 7 7 8 9 9 7 4 2 359
15 13 16 16 5 13 24 23 24 24 23 24 24 21 15 7 357 4 5 3 358 353 357 352 351 352 354 357 2 4 3 1 0 359 359 359 357 353
17 12 9 10 9 10 18 15 10 12 18 22 26 24 19 4 353 355 349 353 357 355 359 351 0 359 352 359 7 7 6 7 5 3 3 1 358 352
12 7 6 7 9 9 8 9 14 16 20 21 23 21 19 4 357 347 345 350 347 353 347 343 351 356 351 356 6 16 17 13 12 10 7 2 357 355
3 1 7 11 11 10 13 13 12 7 5 4 8 4 357 359 2 2 2 1 2 356 351 350 352 350 350 353 355 11 13 17 21 15 13 8 4 4
3 4 7 9 14 14 12 6 358 357 357 1 0 360 1 358 354 359 4 7 5 5 3 356 350 345 346 357 3 12 7 13 23 17 8 8 9 9
14 11 8 10 13 11 4 3 356 354 354 354 353 351 353 348 347 338 349 358 1 3 7 9 359 354 355 0 359 7 10 9 20 17 9 6 8 15
10 7 4 2 1 3 2 358 360 355 353 348 344 343 343 343 347 341 338 339 347 358 355 0 5 7 6 6 4 5 3 17 18 12 6 6 13 29
357 354 359 356 355 354 354 355 358 353 346 342 342 338 337 336 332 339 341 342 345 355 356 1 1 5 5 4 7 1 2 6 22 17 16 15 13 28
353 349 354 354 352 350 346 345 349 345 341 337 337 339 333 337 338 333 339 335 344 351 358 358 353 354 352 2 12 7 3 352 352 358 20 21 17 23
360 354 355 353 350 346 343 342 343 347 346 339 334 329 330 327 325 329 330 337 331 337 346 1 5 4 357 357 4 10 13 15 8 357 355 359 15 36
350 354 354 352 353 350 350 346 342 339 338 340 335 331 327 326 324 328 330 336 344 342 343 353 5 7 1 6 8 10 23 30 29 26 14 15 22 23
349 352 352 353 349 347 345 343 340 339 339 337 332 326 326 328 325 326 323 333 341 344 344 358 4 7 12 12 1 11 24 37 36 37 35 33 27 21
354 351 348 347 354 354 353 350 348 346 337 337 338 340 330 327 324 326 329 331 332 333 338 341 348 356 4 1 354 344 358 28 29 33 35 69 58 58